Flag for Czech Republic Weather past 2 weeks in Brno, Czech Republic

Now
50 °F

Passing clouds.


Feels Like: 47 °F
Forecast: 47 / 63 °F
Wind: 7 mph from Northeast

Location: Brno / Turany


UV Index: 0 (Low)

Visibility: 9 mi


Pressure: 29.83 "Hg

Humidity: 80%

Dew point: 44 °F

Location of BrnoLocation

Historic Weather in Brno

°F

Brno temperature yesterday

Maximum temperature yesterday: 68 °F (at 1:00 PM)
Minimum temperature yesterday: 44 °F (at 6:00 AM)
Average temperature yesterday: 55 °F

Past Weeks' High & Low Weather Summary

 TemperatureHumidityPressure
High69 °F (Apr 8, 2:00 PM)92% (Apr 7, 4:00 AM)30.35 "Hg (Apr 7, 4:00 AM)
Low33 °F (Apr 18, 6:00 AM)28% (Apr 18, 4:00 PM)29.75 "Hg (Apr 18, 4:00 PM)
Average49 °F64%30.02 "Hg
* Reported Apr 5 3:00 AM — Apr 20 3:00 AM, Brno, Weather by CustomWeather, © 2014

Note: Actual official high and low records may vary slightly from our data, if they occured in-between our weather recording intervals... More about our weather records

Advertising

Historic Weather Conditions — Data for Previous 24 hours

 ConditionsComfort  
Time TempWeatherWind HumidityBarometerVisibility
3:00 AM
Apr 20
50 °FPassing clouds.7 mph80%29.83 "Hg9 mi
2:00 AM51 °FPassing clouds.6 mph81%29.83 "Hg9 mi
1:00 AM52 °FPassing clouds.7 mph77%29.83 "Hg9 mi
12:00 AM53 °FPassing clouds.8 mph75%29.83 "Hg12 mi
11:00 PM
Apr 19
54 °FPassing clouds.6 mph71%29.82 "Hg12 mi
10:00 PM56 °FOvercast.9 mph63%29.81 "Hg12 mi
9:00 PM56 °FPassing clouds.10 mph63%29.81 "Hg12 mi
8:00 PM57 °FPassing clouds.12 mph61%29.79 "Hg12 mi
7:00 PM58 °FScattered clouds.9 mph62%29.78 "Hg19 mi
6:00 PM58 °FScattered clouds.7 mph70%29.79 "Hg19 mi
5:00 PM65 °FOvercast.10 mph48%29.77 "Hg11 mi
4:00 PM65 °FOvercast.12 mph43%29.77 "Hg11 mi
3:00 PM66 °FOvercast.14 mph44%29.77 "Hg11 mi
2:00 PM67 °FScattered clouds.15 mph42%29.78 "Hg11 mi
1:00 PM68 °FScattered clouds.13 mph42%29.77 "Hg11 mi
12:00 PM65 °FPartly sunny.13 mph46%29.80 "Hg6 mi
11:00 AM61 °FPartly sunny.9 mph54%29.82 "Hg7 mi
10:00 AM58 °FPartly sunny.7 mph59%29.84 "Hg7 mi
9:00 AM53 °FPartly sunny.6 mph68%29.85 "Hg6 mi
8:00 AM47 °FPartly sunny.2 mph74%29.87 "Hg6 mi
7:00 AM44 °FPassing clouds.3 mph78%29.87 "Hg6 mi
6:00 AM44 °FPartly sunny.6 mph78%29.86 "Hg6 mi
5:00 AM44 °FPassing clouds.6 mph75%29.85 "Hg7 mi
4:00 AM45 °FOvercast.6 mph72%29.86 "Hg9 mi
Weather by CustomWeather, © 2014

See weather overview